Starlink 30813

operational
NORAD ID: 58213 Int'l Des: 2023-170 Owner: SPXS Country: US Constellation: starlink
LEOCIRCULAR

关于 Starlink 30813

正在加载描述...

实时位置

正在加载3D地球...

即将过境

高度历史

Altitude vs Time

uPlot chart will show altitude changes over time

两行轨道根数

1 58213U 23170H 25303.02122464 -.00000516 00000-0 -23133-4 0 9996
2 58213 43.0033 185.9289 0001226 263.0686 97.0017 15.02529450110625
Epoch: Oct 30, 2025 • Age: 25 hours

当前状态

高度 560.3 km
速度 7.58 km/s
星下点 -8.96°S, 101.16°E
发射日期 Nov 4, 2023
运行时间 1.9 years
类型 internet

技术详情

分类 Payload
质量 730.00 kg
干质量 700.00 kg
总质量 730.00 kg
长度 0.30 m
直径 4.10 m
跨度 29.00 m
形状 Box + pan
制造商 SPXS
平台类型 Starlink V2M
阶段状态 In Orbit
所有者/国家 SPXS/US

大型星座

Loading constellations...